Theta_e
319 320 319 319 321 320 321 320 320 317 317 316 317 320 321 320 320 317 318 318 319 317 317 316 316 324 318 321 318 319 317 316
317 318 318 321 321 321 319 320 319 319 318 318 316 317 317 317 316 317 315 315 316 315 316 315 316 315 315 316 315 318 316 316
319 321 322 320 321 317 319 322 321 318 317 318 318 314 316 316 318 316 315 313 315 314 316 317 315 315 313 313 314 316 314 316
318 320 317 318 320 317 320 320 321 320 319 318 319 316 314 317 317 316 316 314 315 313 314 315 317 313 314 314 315 315 315 315
316 319 318 318 318 318 323 320 322 320 319 320 320 316 317 316 319 318 315 316 313 315 313 314 317 315 314 314 316 318 314 316
319 321 319 320 319 319 325 330 322 320 321 320 322 320 316 317 316 315 319 317 315 316 316 313 318 315 312 317 318 313 313 313
320 320 319 321 321 321 327 325 322 322 322 325 324 322 319 318 316 320 321 320 319 313 313 312 315 314 313 316 314 313 312 313
320 320 322 320 322 323 327 325 321 320 323 324 323 322 315 317 317 319 318 317 317 315 318 314 316 318 312 314 311 313 313 313
322 322 324 322 323 323 325 323 320 321 323 322 320 313 314 317 317 318 317 317 318 317 315 316 315 313 312 314 312 311 312 314
322 323 324 323 323 325 327 325 323 323 325 324 324 321 318 318 317 316 317 318 317 318 314 314 313 310 311 311 311 310 311 312
321 324 325 325 325 325 326 324 326 324 323 323 322 323 320 316 314 314 317 319 318 318 316 314 314 314 311 311 311 310 308 311
319 320 322 323 325 326 325 324 322 322 323 321 319 319 312 313 314 314 316 319 320 319 318 316 314 313 313 312 315 313 310 308
318 319 320 321 323 323 324 321 318 319 321 315 318 317 314 314 313 313 314 316 317 318 317 316 314 313 313 312 313 313 311 310
319 320 322 321 322 322 323 318 318 322 317 317 316 317 317 314 313 312 313 313 314 316 317 315 315 313 312 313 314 313 312 311
311 311 312 312 314 318 318 316 317 318 315 317 315 319 319 317 316 314 313 311 310 311 314 313 313 314 314 313 313 312 312 310
310 310 311 310 309 310 312 312 311 316 315 317 318 316 316 317 318 315 313 312 311 313 313 313 313 317 314 314 312 312 312 311
309 309 306 307 305 307 308 308 307 308 315 315 314 315 313 316 316 315 312 314 317 313 314 313 313 316 314 313 311 310 311 312
301 302 303 305 305 306 307 307 306 310 315 313 313 311 314 314 315 315 313 312 314 313 314 315 313 315 313 312 310 310 311 310
301 302 303 304 304 305 307 307 306 307 308 309 312 312 313 312 312 314 314 313 312 313 313 315 316 314 315 312 311 312 314 313
301 302 303 303 303 304 304 306 306 305 306 306 307 311 311 310 312 312 312 312 312 313 314 315 314 314 314 312 310 315 312 312
Wind_Speed
9 8 7 5 3 5 6 6 6 7 5 4 3 2 1 2 4 2 4 4 4 4 4 3 4 8 4 6 6 4 2 3
8 8 6 4 3 4 5 8 6 6 4 4 3 3 3 2 1 4 3 3 4 5 4 5 4 3 5 5 4 5 6 7
6 6 5 4 2 1 4 7 4 2 3 3 4 1 1 3 4 4 3 3 2 3 4 4 4 2 3 4 5 5 6 6
5 5 3 3 3 5 1 4 6 1 1 3 4 2 2 2 2 4 5 3 0 3 4 5 4 2 3 3 4 6 5 5
7 6 6 6 5 5 4 5 7 4 2 3 4 3 2 3 2 5 6 5 3 3 4 4 4 3 4 5 5 1 4 5
7 6 6 7 6 6 7 7 7 6 5 4 4 4 4 4 3 2 5 5 4 4 3 3 3 4 4 3 3 4 4 4
9 10 11 10 9 8 8 7 6 5 4 3 4 5 5 5 4 3 6 3 3 2 3 5 5 4 3 4 1 1 3 5
14 12 11 10 10 9 9 7 5 3 2 4 3 3 3 2 2 3 5 3 3 2 4 4 4 2 3 2 2 1 1 4
14 14 12 11 8 8 7 7 1 2 2 3 5 5 2 1 2 4 4 2 3 4 4 4 2 2 4 5 2 2 3 3
13 13 12 9 7 8 1 4 3 5 3 4 4 7 4 3 3 3 5 5 5 4 3 4 4 2 5 4 2 2 2 1
11 10 8 8 7 6 8 7 5 4 4 4 5 6 3 2 3 3 4 6 6 4 4 3 3 2 3 3 2 3 2 3
7 6 6 7 8 4 6 9 5 4 7 8 6 9 4 3 3 2 2 3 5 4 4 4 3 2 4 3 2 2 1 4
7 7 8 3 5 4 5 6 5 6 8 3 4 7 5 2 2 3 2 4 6 6 5 5 4 2 3 5 4 3 2 3
8 6 5 6 6 4 6 6 5 5 6 8 8 11 7 5 5 4 4 4 5 6 6 5 5 4 5 4 4 4 4 4
7 6 6 6 6 5 7 6 5 6 7 8 7 5 4 3 11 5 6 4 3 5 5 5 4 6 6 4 4 4 5 4
5 4 3 5 5 7 6 5 4 6 9 5 2 5 4 6 7 5 5 3 4 4 4 6 6 4 4 4 2 3 6 5
5 3 6 7 5 5 6 5 3 5 6 4 5 6 6 7 6 4 5 5 3 5 5 5 5 4 4 5 3 4 5 4
6 5 4 3 3 3 6 5 3 4 5 2 0 1 5 6 6 7 7 6 4 5 6 6 6 6 3 4 3 4 5 5
6 4 5 5 6 7 5 5 7 6 2 2 1 3 3 6 6 7 7 6 6 6 6 6 6 6 6 5 4 6 6 5
4 3 3 4 4 4 4 5 5 2 3 3 4 4 4 5 6 7 7 8 6 6 6 5 6 5 6 5 4 3 3 4
Wind_Direction
108 107 103 91 88 73 113 80 54 39 10 16 33 123 212 96 173 139 49 15 358 355 1 332 332 337 350 5 357 2 317 325
125 123 108 107 63 85 93 83 55 23 18 6 12 47 55 143 213 97 67 25 8 351 341 326 321 327 21 2 346 337 346 322
95 130 152 151 151 208 66 104 71 29 37 341 342 15 20 288 104 132 99 68 36 338 324 321 332 344 19 348 329 311 309 304
165 185 192 181 191 244 203 179 147 126 329 321 319 264 306 291 215 163 130 108 215 320 314 321 308 331 334 309 286 284 304 321
194 183 194 204 221 253 282 210 161 171 159 312 310 269 331 302 306 184 173 152 206 262 291 325 286 301 328 322 323 313 5 341
226 191 198 215 225 244 264 276 172 180 183 236 265 244 236 242 231 230 163 167 199 243 241 294 283 319 314 337 324 10 349 346
220 196 206 202 204 224 249 266 186 181 211 265 278 286 249 258 226 141 155 180 205 201 238 273 296 279 319 322 318 14 330 328
221 207 219 217 220 210 218 231 198 147 267 288 296 278 303 291 226 178 164 186 260 287 268 266 299 309 310 301 277 290 280 280
213 209 213 216 220 227 227 207 149 353 327 343 355 279 284 296 163 158 173 230 278 288 250 256 234 333 283 286 282 355 321 321
210 215 207 208 197 202 115 35 192 217 216 98 242 270 253 242 228 218 196 202 242 264 264 250 234 270 312 322 11 307 274 311
192 187 188 209 212 212 180 205 226 207 126 230 259 291 282 324 239 260 247 222 220 253 252 257 298 289 274 249 264 265 259 290
112 130 203 203 222 236 160 194 205 190 185 227 217 264 255 232 227 216 259 285 262 270 249 262 258 285 300 270 250 234 203 273
139 164 201 175 118 166 148 157 204 203 208 257 251 267 245 233 288 270 291 274 278 262 253 239 270 271 265 256 280 261 231 228
161 192 157 182 170 124 170 191 236 201 215 229 235 260 284 325 308 295 304 294 287 254 248 237 244 253 263 255 258 258 263 255
72 50 92 95 88 143 166 183 215 218 215 243 243 234 230 302 279 271 260 266 257 245 228 243 253 242 230 240 257 275 267 249
110 121 119 96 42 36 71 104 54 186 220 256 149 169 215 222 242 265 251 223 224 241 243 241 249 265 247 220 240 261 258 251
171 29 54 79 89 112 115 94 48 15 129 181 199 229 233 240 260 267 256 259 248 264 273 252 272 275 244 215 243 287 285 267
66 75 78 93 64 66 63 63 30 81 121 168 148 339 249 240 251 252 245 247 258 276 271 267 262 271 259 226 246 280 272 281
55 45 41 56 50 62 69 43 54 66 32 4 314 291 316 294 262 254 241 244 244 250 261 264 269 265 255 241 224 257 278 294
73 57 60 85 97 80 61 71 60 63 23 6 320 296 307 295 283 270 242 228 231 245 246 261 265 272 260 240 238 227 297 291